Disclaimer

Please do not use the information listed here in-flight or in-navigation, as they are not provided to us by the airports but are provided by volunteers, so they might be outdated.

Search


Regions


Airport information page

Radio informations:
Tower (TWR) - 40.6 MHz
BREMEN CON - 131.325 MHz
A/G RDO - 40.6 MHz
RADAR - 130.5 MHz

Airport informations:
Latitude: 52° 35' 28.32" N
Longitude: 010° 01' 19.68" E
Elevation: 129 feet - 39 meters
Operating hours: Remarks
Operating agency: Military
Timezone: UTC+1(+2DT) - Last Sunday in March to last Sunday in October
Fuel: JP-8, SemiKeroscene MIL Spec T-83133, without icing inhibitor

Runway information:
08/26 - 6007 x 148 feet< - >1831 x 45 meters

Recent METARs:
ETHC 152120Z 25015G25KT 2200 -DZ BR BKN004 06/05 Q1010 YLO
ETHC 152120Z 25015G25KT 2200 -DZ BR BKN004 06/05 Q1010 YLO
ETHC 152220Z 25014G25KT 3300 -DZ BR BKN005 06/06 Q1010 YLO

Airport on the map: